Вернуться в каталог

COSMOS 1554

GLONASS

АктивенНавигацияMEO
NORAD 14977·PAYLOAD·🇷🇺 Russia

Запущен May 19, 1984 с Baikonur Cosmodrome

Loading…

Ближайшие Пролёты (ближайшие 24 часа)

TLE

СвежийSource: Space-Track

Эпоха: Sep 13, 2026, 05:54 UTC

1 14977U 84047A   26256.24598661 -.00000066  00000-0  00000+0 0  9995
2 14977  66.3264 325.2610 0018984 214.5082 140.3950  2.13100727105751

Отслеживайте COSMOS 1554 в реальном времени с AllMySat

Download on the App Store